Regional Weather Roundup
Issued by NWS

Home | Current Version | Previous Version | Text Only | Print | Product List | Glossary Off
Versions: 1 2 3 4 5 6 7 8 9 10 11 12 13 14 15 16 17 18 19 20 21 22 23 24 25 26 27 28 29 30 31 32 33 34 35 36 37 38 39 40 41 42 43 44 45 46 47 48 49 50

000
ASUS43 KTOP 210108
RWRKS

WEATHER ROUNDUP FOR KANSAS
NATIONAL WEATHER SERVICE GOODLAND KS
700 PM CST FRI JAN 20 2017

NOTE:  "FAIR" INDICATES FEW OR NO CLOUDS BELOW 12,000 FEET WITH NO
SIGNIFICANT WEATHER AND/OR OBSTRUCTIONS TO VISIBILITY.

KSZ001>006-013>018-027>032-041>047-210200-
NORTHWEST KANSAS

CITY           SKY/WX    TMP DP  RH WIND       PRES   REMARKS
GOODLAND       CLEAR     34  33  96 W10       29.41R WCI  26
HAYS           CLOUDY    44  36  73 NW5       29.41F
HILL CITY      CLOUDY    40  37  89 W3        29.42R
RUSSELL        CLOUDY    45  41  86 N6        29.40S
$$

KSZ061>065-074>080-084>089-210200-
SOUTHWEST KANSAS

CITY           SKY/WX    TMP DP  RH WIND       PRES   REMARKS
DODGE CITY     PTCLDY    39  34  82 W10       29.44R WCI  32
ELKHART          N/A     37  27  67 NW6         N/A
GARDEN CITY    MOCLDY    37  33  85 W13       29.47R WCI  29
LIBERAL        CLEAR     37  28  70 W7        29.51R
PRATT          MOCLDY    39  37  93 S6        29.42R
$$

KSZ066>073-081>083-090>101-210200-
SOUTHEAST KANSAS

CITY           SKY/WX    TMP DP  RH WIND       PRES   REMARKS
CHANUTE        CLEAR     49  40  71 SW9       29.48R
COFFEYVILLE    CLEAR     54  41  61 S5        29.49S
HUTCHINSON     CLOUDY    46  43  89 S7        29.44R
MEDICINE LODGE   N/A     42  39  89 E3        29.44R
NEWTON         PTCLDY    42  41  96 S10       29.44S
PARSONS        CLEAR     50  40  68 S5        29.49S
WICHITA INTL   PTCLDY    41  39  93 S8        29.44S
WICHITA JABRA  PTCLDY    40  39  97 SE6       29.44S
WICHITA MCCONL PTCLDY    42  39  91 S8        29.44F
WINFIELD       PTCLDY    42  39  89 NW8       29.47R
$$

KSZ007>012-019>026-033>040-048>060-102>105-210200-
NORTHEAST KANSAS

CITY           SKY/WX    TMP DP  RH WIND       PRES   REMARKS
CONCORDIA      LGT RAIN  45  45 100 W6        29.42S FOG
EMPORIA        CLOUDY    48  44  86 SW9       29.46R
LAWRENCE       CLOUDY    49  48  97 CALM      29.46S
MANHATTAN      CLOUDY    48  45  89 CALM      29.43S
MARYSVILLE     CLOUDY    45  45 100 S5        29.43R
OLATHE IND     MOCLDY    48  45  89 S5        29.47R
OLATHE EXE     MOCLDY    48  46  93 S3        29.46S
SALINA         CLOUDY    46  45  96 S9        29.44R
TOPEKA BILLARD CLOUDY    50  47  89 CALM      29.45R
TOPEKA FORBES  CLOUDY    50  47  89 S7        29.45R
$$




USA.gov is the U.S. government's official web portal to all federal, state and local government web resources and services.